YB3RDW-13 Weather Reports


time (UTC)temp
C
wind
direction
speed
KPH
gust
KPH
rain 1hr
cm
rain 24hr
cm
rain mn
cm
humidity
%
barometer
mb
20260506140159 29 275 11.3 12.9 0.00 0.00 0.00 80 1012.0
20260506135657 29 235 4.8 4.8 0.00 0.00 0.00 80 1012.0
20260506135157 29 319 8.0 9.7 0.00 0.00 0.00 80 1012.0
20260506134658 29 284 9.7 11.3 0.00 0.00 0.00 80 1012.0
20260506134158 29 286 8.0 9.7 0.00 0.00 0.00 80 1012.0
20260506133658 29 326 8.0 9.7 0.00 0.00 0.00 80 1012.0
20260506133157 29 311 6.4 8.0 0.00 0.00 0.00 80 1012.0
20260506132657 29 296 6.4 9.7 0.00 0.00 0.00 80 1012.0
20260506132157 29 220 11.3 14.5 0.00 0.00 0.00 80 1012.0
20260506131659 29 289 11.3 14.5 0.00 0.00 0.00 79 1012.0
20260506131158 29 14 8.0 9.7 0.00 0.00 0.00 79 1012.0
20260506130657 29 327 9.7 14.5 0.00 0.00 0.00 79 1012.0
20260506130157 29 313 9.7 11.3 0.00 0.00 0.00 79 1012.0
20260506125658 29 319 9.7 12.9 0.00 0.00 0.00 79 1012.0
20260506125157 29 302 12.9 12.9 0.00 0.00 0.00 78 1012.0
20260506124657 30 301 9.7 12.9 0.00 0.00 0.00 78 1012.0
20260506124158 30 256 6.4 8.0 0.00 0.00 0.00 77 1012.0
20260506123657 30 181 8.0 9.7 0.00 0.00 0.00 76 1012.0
20260506123157 30 308 9.7 11.3 0.00 0.00 0.00 75 1012.0
20260506122658 30 323 4.8 8.0 0.00 0.00 0.00 74 1011.0
20260506122158 30 277 8.0 11.3 0.00 0.00 0.00 74 1011.0
20260506121657 30 317 12.9 17.7 0.00 0.00 0.00 73 1011.0
20260506121157 30 118 8.0 9.7 0.00 0.00 0.00 73 1011.0
20260506120657 30 268 8.0 11.3 0.00 0.00 0.00 73 1011.0
20260506120157 30 319 4.8 4.8 0.00 0.00 0.00 72 1011.0
20260506115657 30 271 9.7 12.9 0.00 0.00 0.00 72 1010.0
20260506115157 30 253 9.7 11.3 0.00 0.00 0.00 72 1010.0
20260506114657 30 288 11.3 12.9 0.00 0.00 0.00 72 1010.0
20260506114157 30 204 6.4 8.0 0.00 0.00 0.00 72 1010.0
20260506113703 30 213 3.2 11.3 0.00 0.00 0.00 72 1010.0
20260506113159 30 245 9.7 11.3 0.00 0.00 0.00 72 1010.0
20260506112657 30 297 14.5 16.1 0.00 0.00 0.00 71 1010.0
20260506112157 30 90 9.7 12.9 0.00 0.00 0.00 71 1010.0
20260506111657 30 228 4.8 8.0 0.00 0.00 0.00 71 1010.0
20260506111157 30 215 6.4 8.0 0.00 0.00 0.00 70 1010.0
20260506110657 30 234 4.8 8.0 0.00 0.00 0.00 70 1010.0
20260506110200 30 310 14.5 16.1 0.00 0.00 0.00 70 1010.0
20260506105700 30 165 6.4 9.7 0.00 0.00 0.00 71 1010.0
20260506105159 30 329 4.8 8.0 0.00 0.00 0.00 70 1010.0
20260506104657 30 273 8.0 11.3 0.00 0.00 0.00 70 1010.0
20260506104201 30 253 4.8 4.8 0.00 0.00 0.00 69 1010.0
20260506103659 30 289 3.2 3.2 0.00 0.00 0.00 67 1010.0
20260506103200 30 300 8.0 11.3 0.00 0.00 0.00 67 1009.0
20260506102658 30 298 9.7 11.3 0.00 0.00 0.00 66 1009.0
20260506102158 30 298 8.0 11.3 0.00 0.00 0.00 66 1009.0
20260506101657 31 309 12.9 16.1 0.00 0.00 0.00 65 1009.0
20260506101204 31 334 6.4 8.0 0.00 0.00 0.00 65 1009.0
20260506100659 31 324 6.4 9.7 0.00 0.00 0.00 64 1009.0
20260506100158 31 289 9.7 11.3 0.00 0.00 0.00 62 1009.0
20260506095657 31 144 11.3 14.5 0.00 0.00 0.00 61 1009.0
20260506095157 31 268 6.4 8.0 0.00 0.00 0.00 61 1009.0
20260506094657 31 262 8.0 11.3 0.00 0.00 0.00 61 1009.0
20260506094158 31 302 6.4 9.7 0.00 0.00 0.00 61 1009.0
20260506093657 31 297 9.7 11.3 0.00 0.00 0.00 61 1009.0
20260506093157 32 296 9.7 11.3 0.00 0.00 0.00 58 1009.0
20260506092658 32 237 4.8 4.8 0.00 0.00 0.00 58 1009.0
20260506092157 32 266 6.4 9.7 0.00 0.00 0.00 57 1009.0
20260506091657 32 313 14.5 16.1 0.00 0.00 0.00 57 1009.0
20260506091157 32 265 11.3 12.9 0.00 0.00 0.00 57 1009.0
20260506090700 32 274 8.0 9.7 0.00 0.00 0.00 57 1009.0
20260506090158 32 234 9.7 12.9 0.00 0.00 0.00 55 1009.0
20260506085657 32 291 8.0 12.9 0.00 0.00 0.00 57 1009.0
20260506085157 32 255 8.0 9.7 0.00 0.00 0.00 57 1009.0
20260506084657 32 287 8.0 11.3 0.00 0.00 0.00 57 1009.0
20260506084157 32 313 14.5 17.7 0.00 0.00 0.00 55 1009.0
20260506083658 32 299 11.3 12.9 0.00 0.00 0.00 55 1009.0
20260506083157 32 310 8.0 11.3 0.00 0.00 0.00 57 1009.0
20260506082657 32 323 11.3 12.9 0.00 0.00 0.00 57 1009.0
20260506082157 32 269 12.9 16.1 0.00 0.00 0.00 57 1009.0
20260506081658 32 220 11.3 12.9 0.00 0.00 0.00 57 1009.0
20260506081157 32 293 11.3 12.9 0.00 0.00 0.00 57 1009.0
20260506080658 32 275 11.3 12.9 0.00 0.00 0.00 56 1009.0
20260506080157 32 271 12.9 14.5 0.00 0.00 0.00 58 1009.0
20260506073158 33 279 14.5 16.1 0.00 0.00 0.00 56 1009.0
20260506072657 33 285 16.1 20.9 0.00 0.00 0.00 55 1009.0
20260506072157 32 320 14.5 14.5 0.00 0.00 0.00 55 1009.0
20260506071657 33 323 16.1 20.9 0.00 0.00 0.00 55 1009.0
20260506071157 33 300 14.5 16.1 0.00 0.00 0.00 54 1009.0
20260506070657 33 320 12.9 14.5 0.00 0.00 0.00 54 1009.0
20260506070157 33 294 12.9 14.5 0.00 0.00 0.00 55 1009.0
20260506062157 33 282 8.0 9.7 0.00 0.00 0.00 59 1009.0
20260506061658 33 306 11.3 12.9 0.00 0.00 0.00 60 1010.0
20260506061158 33 339 9.7 11.3 0.00 0.00 0.00 57 1010.0
20260506060657 33 277 12.9 14.5 0.00 0.00 0.00 56 1010.0
20260506060157 33 262 12.9 17.7 0.00 0.00 0.00 56 1010.0
20260506051158 32 271 16.1 16.1 0.00 0.00 0.00 59 1011.0
20260506050659 32 343 11.3 16.1 0.00 0.00 0.00 58 1011.0
20260506050157 32 284 14.5 14.5 0.00 0.00 0.00 58 1011.0
20260506044659 32 322 14.5 16.1 0.00 0.00 0.00 62 1011.0
20260506044158 32 315 11.3 12.9 0.00 0.00 0.00 63 1011.0
20260506043657 32 241 12.9 16.1 0.00 0.00 0.00 61 1011.0
20260506043157 33 275 12.9 12.9 0.00 0.00 0.00 60 1011.0
20260506042657 32 48 8.0 11.3 0.00 0.00 0.00 62 1011.0
20260506042157 32 291 11.3 16.1 0.00 0.00 0.00 62 1011.0
20260506041658 32 337 11.3 16.1 0.00 0.00 0.00 61 1011.0
20260506041158 32 314 14.5 16.1 0.00 0.00 0.00 61 1012.0
20260506040657 32 241 11.3 14.5 0.00 0.00 0.00 60 1012.0
20260506040158 32 201 4.8 8.0 0.00 0.00 0.00 59 1012.0
20260506035657 32 280 12.9 12.9 0.00 0.00 0.00 60 1012.0
20260506035157 32 307 12.9 14.5 0.00 0.00 0.00 61 1012.0
20260506034657 32 227 11.3 14.5 0.00 0.00 0.00 61 1012.0
20260506034158 32 253 6.4 9.7 0.00 0.00 0.00 61 1012.0
20260506033657 32 9 11.3 12.9 0.00 0.00 0.00 64 1012.0
20260506033157 32 349 8.0 11.3 0.00 0.00 0.00 63 1012.0
20260506032657 32 311 3.2 9.7 0.00 0.00 0.00 63 1012.0
20260506032158 32 342 12.9 14.5 0.00 0.00 0.00 63 1012.0
20260506031657 32 311 9.7 11.3 0.00 0.00 0.00 63 1012.0
20260506031158 32 332 11.3 14.5 0.00 0.00 0.00 62 1012.0
20260506030659 32 288 11.3 12.9 0.00 0.00 0.00 63 1012.0
20260506030157 32 347 11.3 14.5 0.00 0.00 0.00 63 1012.0
20260506025657 32 310 12.9 14.5 0.00 0.00 0.00 66 1013.0
20260506025157 31 277 8.0 9.7 0.00 0.00 0.00 67 1013.0
20260506024657 31 2 9.7 14.5 0.00 0.00 0.00 70 1013.0
20260506024157 32 270 11.3 11.3 0.00 0.00 0.00 68 1013.0
20260506023657 31 343 4.8 4.8 0.00 0.00 0.00 69 1013.0
20260506023157 32 165 6.4 8.0 0.00 0.00 0.00 69 1013.0
20260506022657 32 264 9.7 11.3 0.00 0.00 0.00 68 1013.0
20260506022157 31 228 6.4 9.7 0.00 0.00 0.00 69 1013.0
20260506021657 31 177 1.6 1.6 0.00 0.00 0.00 71 1013.0
20260506021157 31 10 8.0 9.7 0.00 0.00 0.00 72 1013.0
20260506020659 31 218 1.6 1.6 0.00 0.00 0.00 72 1013.0
20260506020158 31 297 9.7 11.3 0.00 0.00 0.00 71 1013.0
20260506015657 31 265 8.0 9.7 0.00 0.00 0.00 73 1013.0
20260506015157 31 158 1.6 1.6 0.00 0.00 0.00 74 1013.0
20260506014657 30 121 1.6 3.2 0.00 0.00 0.00 76 1013.0
20260506014157 30 219 4.8 4.8 0.00 0.00 0.00 76 1013.0
20260506013657 30 214 0.0 1.6 0.00 0.00 0.00 76 1013.0
20260506013157 31 25 1.6 3.2 0.00 0.00 0.00 76 1013.0
20260506012657 30 172 3.2 3.2 0.00 0.00 0.00 79 1013.0
20260506012158 30 177 1.6 3.2 0.00 0.00 0.00 81 1013.0
20260506011658 29 179 4.8 4.8 0.00 0.00 0.00 81 1013.0
20260506011157 29 123 1.6 1.6 0.00 0.00 0.00 81 1013.0
20260506010704 29 152 1.6 3.2 0.00 0.00 0.00 82 1013.0
20260506010158 29 151 1.6 1.6 0.00 0.00 0.00 83 1013.0
20260506005658 29 127 3.2 3.2 0.00 0.00 0.00 84 1013.0
20260506005158 29 150 1.6 3.2 0.00 0.00 0.00 83 1013.0
20260506004657 28 175 0.0 0.0 0.00 0.00 0.00 83 1013.0
20260506004157 28 150 1.6 1.6 0.00 0.00 0.00 84 1013.0
20260506003657 28 170 1.6 3.2 0.00 0.00 0.00 85 1013.0
20260506003157 28 172 0.0 0.0 0.00 0.00 0.00 87 1013.0
20260506002657 28 159 1.6 1.6 0.00 0.00 0.00 87 1013.0
20260506002157 27 159 0.0 0.0 0.00 0.00 0.00 89 1013.0
20260506001657 27 144 1.6 3.2 0.00 0.00 0.00 89 1013.0
20260506001158 27 123 1.6 3.2 0.00 0.00 0.00 90 1012.0
20260506000657 27 86 3.2 3.2 0.00 0.00 0.00 90 1012.0
20260506000158 27 167 1.6 1.6 0.00 0.00 0.00 91 1012.0
20260505235658 26 159 1.6 1.6 0.00 0.00 0.00 91 1012.0
20260505235158 26 114 3.2 3.2 0.00 0.00 0.00 91 1012.0
20260505234658 26 152 1.6 1.6 0.00 0.00 0.00 92 1012.0
20260505234157 26 155 0.0 0.0 0.00 0.00 0.00 93 1012.0
20260505233658 26 135 3.2 3.2 0.00 0.00 0.00 93 1012.0
20260505233157 26 130 3.2 3.2 0.00 0.00 0.00 94 1012.0
20260505232657 26 158 0.0 0.0 0.00 0.00 0.00 95 1012.0
20260505232157 25 147 1.6 1.6 0.00 0.00 0.00 95 1012.0
20260505231657 25 156 0.0 1.6 0.00 0.00 0.00 96 1012.0
20260505231157 25 155 0.0 0.0 0.00 0.00 0.00 96 1012.0
20260505230657 25 130 3.2 3.2 0.00 0.00 0.00 96 1012.0
20260505230158 25 156 0.0 0.0 0.00 0.00 0.00 96 1012.0
20260505225657 25 162 1.6 1.6 0.00 0.00 0.00 96 1012.0
20260505225157 25 133 0.0 0.0 0.00 0.00 0.00 96 1012.0
20260505224657 25 144 3.2 3.2 0.00 0.00 0.00 96 1012.0
20260505224157 25 147 0.0 0.0 0.00 0.00 0.00 96 1012.0
20260505223657 25 112 1.6 3.2 0.00 0.00 0.00 96 1012.0
20260505223157 25 131 0.0 0.0 0.00 0.00 0.00 96 1012.0
20260505222657 25 152 1.6 1.6 0.00 0.00 0.00 96 1012.0
20260505222157 25 145 1.6 1.6 0.00 0.00 0.00 96 1012.0
20260505221657 25 105 1.6 3.2 0.00 0.00 0.00 96 1012.0
20260505221158 25 150 0.0 0.0 0.00 0.00 0.00 96 1012.0
20260505220657 25 150 1.6 3.2 0.00 0.00 0.00 96 1012.0
20260505220157 25 136 3.2 3.2 0.00 0.00 0.00 96 1012.0
20260505215657 25 143 3.2 3.2 0.00 0.00 0.00 96 1012.0
20260505215157 25 141 1.6 3.2 0.00 0.00 0.00 96 1011.0
20260505214658 25 138 3.2 3.2 0.00 0.00 0.00 96 1011.0
20260505214157 25 153 1.6 1.6 0.00 0.00 0.00 96 1012.0
20260505213657 25 128 1.6 3.2 0.00 0.00 0.00 96 1012.0
20260505213157 25 139 0.0 0.0 0.00 0.00 0.00 96 1012.0
20260505212657 26 153 0.0 0.0 0.00 0.00 0.00 96 1012.0
20260505212157 26 142 0.0 0.0 0.00 0.00 0.00 95 1011.0
20260505211658 26 183 3.2 3.2 0.00 0.00 0.00 95 1012.0
20260505211158 26 130 3.2 3.2 0.00 0.00 0.00 95 1012.0
20260505210657 26 153 1.6 1.6 0.00 0.00 0.00 95 1012.0
20260505210157 26 141 3.2 3.2 0.00 0.00 0.00 95 1012.0
20260505205657 26 141 3.2 3.2 0.00 0.00 0.00 95 1011.0
20260505205158 26 153 0.0 0.0 0.00 0.00 0.00 95 1011.0
20260505204657 26 134 3.2 3.2 0.00 0.00 0.00 95 1012.0
20260505204158 26 111 3.2 3.2 0.00 0.00 0.00 95 1012.0
20260505203657 26 155 3.2 3.2 0.00 0.00 0.00 95 1012.0
20260505203157 26 146 1.6 3.2 0.00 0.00 0.00 95 1012.0
20260505202657 26 137 1.6 3.2 0.00 0.00 0.00 94 1012.0
20260505202157 26 142 3.2 3.2 0.00 0.00 0.00 94 1012.0
20260505201657 26 161 1.6 1.6 0.00 0.00 0.00 94 1011.0
20260505201158 26 156 0.0 0.0 0.00 0.00 0.00 94 1012.0
20260505200700 26 125 3.2 3.2 0.00 0.00 0.00 94 1011.0
20260505200201 26 159 0.0 0.0 0.00 0.00 0.00 94 1012.0
20260505195657 26 136 4.8 4.8 0.00 0.00 0.00 93 1012.0
20260505195159 26 126 1.6 3.2 0.00 0.00 0.00 93 1012.0
20260505194657 26 136 4.8 4.8 0.00 0.00 0.00 93 1011.0
20260505194158 26 133 4.8 4.8 0.00 0.00 0.00 93 1012.0
20260505193657 26 141 3.2 3.2 0.00 0.00 0.00 93 1012.0
20260505193158 26 100 4.8 8.0 0.00 0.00 0.00 93 1012.0
20260505192658 26 142 1.6 3.2 0.00 0.00 0.00 93 1012.0
20260505192157 26 121 4.8 4.8 0.00 0.00 0.00 93 1012.0
20260505191657 26 139 3.2 3.2 0.00 0.00 0.00 93 1012.0
20260505191158 26 121 4.8 4.8 0.00 0.00 0.00 92 1012.0
20260505190659 26 133 4.8 4.8 0.00 0.00 0.00 92 1012.0
20260505190157 26 141 3.2 3.2 0.00 0.00 0.00 92 1012.0
20260505185658 26 100 3.2 4.8 0.00 0.00 0.00 92 1012.0
20260505185157 27 114 3.2 3.2 0.00 0.00 0.00 91 1012.0
20260505184657 27 125 4.8 4.8 0.00 0.00 0.00 91 1012.0
20260505184157 27 101 3.2 4.8 0.00 0.00 0.00 91 1012.0
20260505183658 27 117 3.2 3.2 0.00 0.00 0.00 91 1012.0
20260505183157 27 118 4.8 4.8 0.00 0.00 0.00 90 1012.0
20260505182659 27 141 0.0 0.0 0.00 0.00 0.00 91 1012.0
20260505182158 27 164 1.6 3.2 0.00 0.00 0.00 90 1012.0
20260505181659 27 163 0.0 0.0 0.00 0.00 0.00 90 1012.0
20260505181157 27 178 1.6 1.6 0.00 0.00 0.00 90 1012.0
20260505180657 27 198 3.2 3.2 0.00 0.00 0.00 90 1012.0
20260505180158 27 137 1.6 1.6 0.00 0.00 0.00 90 1012.0
20260505175657 27 144 1.6 3.2 0.00 0.00 0.00 90 1012.0
20260505175158 28 131 3.2 3.2 0.00 0.00 0.00 89 1012.0
20260505174657 28 94 3.2 3.2 0.00 0.00 0.00 86 1012.0
20260505174158 28 188 3.2 3.2 0.00 0.00 0.00 87 1012.0
20260505173658 28 169 0.0 0.0 0.00 0.00 0.00 87 1012.0
20260505173157 28 183 1.6 1.6 0.00 0.00 0.00 87 1012.0
20260505172658 28 188 3.2 3.2 0.00 0.00 0.00 87 1012.0
20260505172157 28 170 0.0 0.0 0.00 0.00 0.00 86 1012.0
20260505171658 28 177 1.6 3.2 0.00 0.00 0.00 87 1012.0
20260505171159 28 190 1.6 1.6 0.00 0.00 0.00 87 1012.0
20260505170657 28 177 1.6 1.6 0.00 0.00 0.00 87 1012.0
20260505170158 28 181 1.6 1.6 0.00 0.00 0.00 87 1012.0
20260505165658 28 187 0.0 1.6 0.00 0.00 0.00 88 1012.0
20260505165158 28 164 0.0 0.0 0.00 0.00 0.00 88 1012.0
20260505164659 28 173 0.0 1.6 0.00 0.00 0.00 88 1012.0
20260505164157 28 176 0.0 1.6 0.00 0.00 0.00 87 1012.0
20260505163657 28 214 4.8 4.8 0.00 0.00 0.00 87 1012.0
20260505163158 28 203 0.0 0.0 0.00 0.00 0.00 87 1012.0
20260505162658 28 185 0.0 1.6 0.00 0.00 0.00 87 1012.0
20260505162158 28 186 3.2 3.2 0.00 0.00 0.00 87 1012.0
20260505161657 28 215 3.2 3.2 0.00 0.00 0.00 87 1012.0
20260505161157 28 247 6.4 8.0 0.00 0.00 0.00 87 1012.0
20260505160658 28 242 4.8 4.8 0.00 0.00 0.00 87 1012.0
20260505160159 28 225 4.8 4.8 0.00 0.00 0.00 87 1013.0
20260505153158 28 222 3.2 3.2 0.00 0.00 0.00 87 1013.0
20260505152657 28 203 0.0 0.0 0.00 0.00 0.00 87 1013.0
20260505152157 28 171 0.0 0.0 0.00 0.00 0.00 86 1013.0
20260505151658 28 168 1.6 3.2 0.00 0.00 0.00 86 1013.0
20260505151201 28 180 0.0 0.0 0.00 0.00 0.00 86 1013.0
20260505150657 28 171 0.0 0.0 0.00 0.00 0.00 86 1013.0
20260505150158 28 179 0.0 0.0 0.00 0.00 0.00 86 1012.0